This is the latest recevied weather packets stored in our database for station/object CE1RLP-31. If no packets are shown the sender has not sent any weather packets the latest 10 day(s).
| Time | Temp. | Humidity | Pressure | Rain* | Wind** | Luminosity | Snow |
|---|---|---|---|---|---|---|---|
| 1777767758 | 12.78° C | 11% | 1100.9 hPa | - | - | - | - |
| 1777766858 | 13.33° C | 11% | 1100.9 hPa | - | - | - | - |
| 1777765958 | 13.33° C | 11% | 1100.8 hPa | - | - | - | - |
| 1777765058 | 13.33° C | 11% | 1100.7 hPa | - | - | - | - |
| 1777764158 | 13.89° C | 10% | 1100.6 hPa | - | - | - | - |
| 1777763257 | 13.89° C | 10% | 1100.5 hPa | - | - | - | - |
| 1777762357 | 14.44° C | 10% | 1100.5 hPa | - | - | - | - |
| 1777761457 | 15° C | 9% | 1100.6 hPa | - | - | - | - |
| 1777760557 | 15.56° C | 10% | 1100.5 hPa | - | - | - | - |
| 1777759657 | 16.11° C | 10% | 1100.5 hPa | - | - | - | - |
| 1777758759 | 16.11° C | 10% | 1100.4 hPa | - | - | - | - |
| 1777757859 | 17.22° C | 9% | 1100.4 hPa | - | - | - | - |
| 1777756959 | 17.22° C | 9% | 1100.4 hPa | - | - | - | - |
| 1777756058 | 17.22° C | 9% | 1100.4 hPa | - | - | - | - |
| 1777755158 | 17.22° C | 9% | 1100.3 hPa | - | - | - | - |
| 1777754258 | 17.78° C | 9% | 1100.4 hPa | - | - | - | - |
| 1777753358 | 17.78° C | 9% | 1100.4 hPa | - | - | - | - |
| 1777752458 | 18.33° C | 8% | 1100.5 hPa | - | - | - | - |
| 1777751558 | 18.33° C | 9% | 1100.5 hPa | - | - | - | - |
| 1777750664 | 18.89° C | 8% | 1100.6 hPa | - | - | - | - |
| 1777749758 | 18.89° C | 8% | 1100.5 hPa | - | - | - | - |
| 1777748858 | 19.44° C | 8% | 1100.6 hPa | - | - | - | - |
| 1777747958 | 20° C | 8% | 1100.6 hPa | - | - | - | - |
| 1777747059 | 20.56° C | 7% | 1100.8 hPa | - | - | - | - |
| 1777746157 | 21.11° C | 8% | 1100.6 hPa | - | - | - | - |
* Rain since midnight (hover to see other rain measurements)
** Current wind speed in m/s (hover to see current wind gust speed)